Ephrata, WA
on Monday, December 3, 2012

Monday
Previous Day Next Day
Daily Summary
 ActualAverageRecord
Temperature
Mean Temperature °F 30°F  
Max Temperature 50°F 37°F 59°F (1975)
Min Temperature 32°F 24°F 3°F (1985)
Degree Days
Heating Degree Days 24 35  
Month to date heating degree days 65 104  
Since 1 July heating degree days 1325 1523  
Cooling Degree Days 0 0  
Month to date cooling degree days 0 0  
Year to date cooling degree days 837 772  
Moisture
Dew Point 36°F   
Average Humidity 81    
Maximum Humidity 96    
Minimum Humidity 66    
Precipitation
Precipitation 0.01 in 0.04 in 0.28 in (1970)
Month to date precipitation 0.35 0.13  
Year to date precipitation 7.30 6.74  
Wind
Wind Speed 8 mph   
Max Wind Speed 15 mph   
Max Gust Speed 18 mph   
Visibility 10 miles   
Events     

Key: T is trace of precipitation, MM is missing value
Source: NWS Daily Summary
Time(PST)TemperatureDew PointHumidity Pressure Visibility Wind DirectionWind SpeedGust SpeedPrecipitationEvents Conditions
12:53 AM 39.0°F 33.1°F 79% 29.81 in 10.0 miles WSW 4.6 mph - N/A   Partly Cloudy
1:53 AM 34.0°F 30.9°F 89% 29.84 in 10.0 miles South 6.9 mph - N/A   Clear
2:53 AM 36.0°F 32.0°F 86% 29.86 in 10.0 miles SW 10.4 mph - N/A   Clear
3:53 AM 32.0°F 30.0°F 92% 29.87 in 10.0 miles South 6.9 mph - N/A   Clear
4:53 AM 34.0°F 32.0°F 92% 29.89 in 10.0 miles SW 10.4 mph - N/A   Clear
5:53 AM 35.1°F 32.0°F 89% 29.89 in 10.0 miles South 11.5 mph - N/A   Clear
7:53 AM 37.9°F 34.0°F 86% 29.94 in 10.0 miles SW 12.7 mph - N/A   Clear
8:53 AM 42.1°F 35.1°F 76% 29.96 in 10.0 miles SW 11.5 mph - N/A   Clear
9:53 AM 44.1°F 36.0°F 73% 29.99 in 10.0 miles SW 12.7 mph - N/A   Clear
10:53 AM 46.9°F 37.0°F 68% 29.99 in 10.0 miles SSW 12.7 mph - N/A   Overcast
11:53 AM 48.0°F 37.9°F 68% 29.99 in 10.0 miles SSW 12.7 mph - N/A   Mostly Cloudy
12:53 PM 48.9°F 37.9°F 66% 30.00 in 10.0 miles SSW 11.5 mph - N/A   Overcast
1:53 PM 48.9°F 37.0°F 64% 30.01 in 10.0 miles SW 11.5 mph - N/A   Mostly Cloudy
2:53 PM 48.0°F 37.0°F 66% 30.01 in 10.0 miles SW 10.4 mph - N/A   Partly Cloudy
3:53 PM 46.0°F 37.0°F 71% 30.02 in 10.0 miles SSW 6.9 mph - N/A   Mostly Cloudy
4:53 PM 43.0°F 37.0°F 80% 30.02 in 10.0 miles South 5.8 mph - N/A   Overcast
5:53 PM 44.1°F 37.9°F 79% 30.01 in 10.0 miles South 8.1 mph - N/A   Scattered Clouds
6:53 PM 43.0°F 37.9°F 82% 30.01 in 10.0 miles South 3.5 mph - N/A   Overcast
7:53 PM 43.0°F 39.9°F 89% 29.99 in 10.0 miles Calm Calm - 0.00 in   Overcast
8:53 PM 42.1°F 39.0°F 89% 29.97 in 10.0 miles Calm Calm - 0.00 in   Overcast
9:53 PM 42.1°F 39.0°F 89% 29.93 in 10.0 miles North 5.8 mph - 0.01 in   Mostly Cloudy
10:53 PM 39.9°F 37.9°F 93% 29.88 in 10.0 miles North 6.9 mph - N/A   Clear
11:53 PM 42.1°F 37.0°F 82% 29.84 in 10.0 miles Variable 3.5 mph - N/A   Mostly Cloudy
Moon Phase
Dec. 03 Dec. 06 Dec. 13 Dec. 20 Dec. 28
Sunrise:07:27 AM (PST) Moon Rise:09:12 PM (PST)12/3
Sunset:04:08 PM (PST) Moon Set:10:43 AM (PST)12/3

Copyright © 2014 The Weather Underground, Inc.